カタログに戻る

STARLINK-5471

運用中通信VLEO
NORAD 54766·PAYLOAD·🇺🇸 United States

打ち上げ Dec 17, 2022 から Cape Canaveral Space Force Station

Loading…

次のパス (今後24時間)

TLE

最新Source: CelesTrak SupGP

元期: Sep 14, 2026, 22:02 UTC

1 54766C 22175J   26257.91854167  .00041120  00000+0  25791-2 0  2578
2 54766  53.1582 274.0038 0001025  83.1201  10.2249 15.08808421    17

AllMySatでSTARLINK-5471をリアルタイム追跡

Download on the App Store